DECAYED
Showing default

JAISAT 1, 44419 (Decayed)

Orbit data source: Space-Track

JAISAT 1, 44419 was a payload satellite owned by RAST (TH) in LEO that was launched on Fri, 05 Jul 2019 UTC via a SOYUZ-2-1B launch vehicle from the Vostochny Cosmodrome (VOSTO). Payload-class satellites include a variety of spacecraft equipped with specific instruments for various scientific and technological missions. These include communications satellites like Starlink; space stations such as the ISS; scientific satellites like the Hubble; Earth observation satellites from companies like Planet Labs, Umbra, and HawkEye 360; GPS; miniature CubeSats for education and research; and military/defense satellites.

Not visible in the next 10 days
Identifier
44419, 2019-038F
Orbit
Decayed
Country
Flag of UnknownUnknown / THAI
Related business
Flag of THRadio Amateur Society of Thailand (TH)
Manufacturer
German Orb Sys
Mission
Decayed Amateur Communications
Bus & Motor
CUBESAT 3U, Unknown motor
Mass
3 kg wet, 3 kg dry
Launch date (UTC)
2019-07-05 (6 years ago)
Launch vehicle
SOYUZ-2-1B
Launch site
Vostochny Cosmodrome (VOSTO)
Object type
Payload
Rocket body
Debris
Shape & HBR
Box, Unknown HBR
Radar Cross Section
0.035 m², Small (<0.1 m²)

Expand to show TLE details & history
Last TLE update: 1 year ago

TLE from 1 year ago
0 JAISAT 1
1 44419U 19038F   24161.30699751  .14138513  27681-5  32002-3 0  9992
2 44419  97.6384 170.8746 0011571 240.3842 119.6307 16.45656077273974
Epoch: 2024-06-09T07:22Z
TLE epoch observation values (Epoch: 2024-06-09T07:22:04.584Z)
Latitude
-0.0001°
Longitude
162.19671°
Altitude
157.794 km
Speed
7.809 km/s
True Right ascension
11h 23m 29s
True Declination
0° 00' 00"
Sunlit
Object was in daylight at epoch
Visualization orbit readout
Latitude
Unknown
Longitude
Unknown
Altitude
Unknown
Speed
Unknown
Apparent Right ascension
Unknown
Apparent Declination
Unknown
Sunlit
N/A
Visualization observer readout
Local Sidereal Time
10:28:35
Azimuth
Unknown
Elevation
Unknown
Doppler factor
Unknown
Orbital elements
Apogee altitude
155.162 km
Perigee altitude
140.06 km
Semi-major axis
6,525.748 km
Eccentricity
0.00116
Inclination
97.6384°
RAAN
170.8746°
Arg. of periapsis
240.3842°
True anomaly
119.74587°
Mean anomaly
119.6307°
Eccentric anomaly
119.68829°
Mean motion
4.11716 °/min
Orbital period
87.44 mins
BSTAR
0.00032002
Loading maneuver chart data...
Computing Atmospheric mass density...

Documentation

Showing up to 5 results
|